{"data":{"norad_id":62619,"intl_designator":"2025-009L","name":"IRIS-F3","alt_names":[],"object_type":"PAYLOAD","status":"ACTIVE","operator":null,"country":"ROC","launch_date":"2025-01-14","launch_site_code":"AFWTR","launch_vehicle":null,"mission":null,"orbit_class":"UNKNOWN","rcs_meters":null,"size_class":null,"mass_kg":null,"dimensions":null,"purposes":[],"wikipedia_slug":null,"has_3d_model":false,"image_url":null,"decayed_at":null,"tle_current":{"epoch":"2026-09-22T17:11:52.821312Z","epoch_age_seconds":126226,"freshness":"FRESH","line1":"1 62619U 25009L   26265.71658358  .00004676  00000+0  17225-3 0  9996","line2":"2 62619  97.3995 345.8526 0005614 353.8330   6.2839 15.28311823 93714","mean_motion":15.28311823,"eccentricity":0.0005614,"inclination_deg":97.3995,"raan_deg":345.8526,"arg_perigee_deg":353.833,"mean_anomaly_deg":6.2839,"bstar":0.00017225,"rev_number":9371,"period_min":94.221609643335,"perigee_km":477.00798903162,"apogee_km":484.70926932407,"semimajor_km":6858.9956291778,"source":"CELESTRAK","updated_at":"2026-09-23T09:00:21.529864Z"}}}